sat.trackr.live / text

‹ back to catalog

STARLINK-11469 [DTC]

NORAD 62227 · 2024-231K

PAYLOAD ACTIVE UNKNOWN

§ Identity

Operator
Country
US
Launch date
2024-12-05
Launch site
AFWTR
Launch vehicle
Mass (kg)
RCS (m²)

Purposes: comms

External: N2YO · Heavens-Above · Gunter

§ Orbital elements

Epoch: 2026-09-21T06:59:55.476384Z

Period
91.74 min
Inclination
53.1566°
Eccentricity
0.0000910
Mean motion
15.69692708 rev/d
Perigee alt
359.2 km
Apogee alt
360.4 km
Semi-major
6,737.9 km
B*
1.4125e-3
RAAN
216.9690°
Arg perigee
78.2061°
Mean anomaly
281.9059°
Rev number
10,413

§ Raw data

STARLINK-11469 [DTC]1 62227U 24231K   26264.29161431  .00174046  00000+0  14125-2 0  99942 62227  53.1566 216.9690 0000910  78.2061 281.9059 15.69692708104130

JSON: /api/v1/satellites/62227 · /tle

For live sub-satellite position, see the globe view (requires WebGL).

§ Visibility from observer

Set your observer location to see the next 7 days of passes ≥ 10°. The values pass through the URL so the page stays shareable.

No JS? Fill the form by hand. The geolocation button needs JavaScript.